Погода в Аше

Чехия     50°13′15″N   12°11′21″E
темп.,
°C
ветер,
м/с
пор.,
м/с
влажн.,
%
обл.,
%
осадки,
мм/ч
давл.,
гПа
погр.,
м
18 апреля, вс
вс1823:00+1ссв1299100 0.0 1022203
02:00+1сз0199100 0.1 1021173
05:00+1юв0199100 0.1 1021197
08:00+2юз009996 0.1 102183
11:00+3ссз1297100 0.1 1020495
14:00+7ссз238099 0.3 1019779
17:00+8с237685 0.5 1018708
20:00+4с129554 0.7 102026
19 апреля, пн
пн1923:00+3сз009483 0.0 102011
02:00+4юв0093100 0.1 102014
05:00+4в0094100 0.1 101913
08:00+5зсз0090100 0.1 1020100
11:00+8ссз227384 0.1 1019875
14:00+9св3363100 0.4 10181124
17:00+9ссв3464100 0.3 1017952
20:00+6св368699 0.4 1019385
20 апреля, вт
вт2023:00+5сз119699 1.3 101959
02:00+5сз1196100 1.3 101858
05:00+5сз1296100 0.1 101871
08:00+5сз139680 0.1 1018142
11:00+7ссз249489 0.3 1017380
14:00+12с336143 0.6 10151346
17:00+11ссв336862 1.3 1015958
20:00+6с11905 1.8 101610
21 апреля, ср
ср2123:00+4сз00922 0.0 101710
02:00+3зюз11935 0.0 101610
05:00+3юз11947 0.0 101610
08:00+6з138916 0.0 1016188
11:00+10сз35655 0.1 10151256
14:00+13ссз564225 0.2 10142200
17:00+12ссз464322 0.0 10141897
20:00+7ссз498273 0.1 1016510
22 апреля, чт
чт2223:00+6с4890100 0.1 1018755
02:00+1с3881100 0.1 1020447
05:00−1ссз2790100 0.0 1021323
08:000ссз487795 0.0 1022565
11:00+5сз57487 0.0 10211287
14:00+8сз694399 0.0 10202096
17:00+6ссз795086 0.0 10211639
20:00+2сз510727 0.0 1024841